Carbondale, IL

7:17 PM CST on November 13, 2019 (GMT -0600)
Southern Illinois

Weather History for KMDH - October, 2019

Change the Weather History Date:

Wednesday, October 23, 2019

  Actual Average Record
Temperature  
Mean Temperature 54 °F -  
Max Temperature 71 °F 67 °F 89 °F (1927)
Min Temperature 37 °F 39 °F 24 °F (1982)
Degree Days  
Heating Degree Days 12    
Growing Degree Days 4 (Base 50)    
Moisture  
Dew Point 38 °F    
Average Humidity 56    
Maximum Humidity 89    
Minimum Humidity 30    
Precipitation  
Precipitation 0.00 in - - ()
Sea Level Pressure  
Sea Level Pressure 30.08 in    
Wind  
Wind Speed 9 mph (South)    
Max Wind Speed 26 mph    
Max Gust Speed 33 mph    
Visibility 10 miles    
Events      
Averages and records for this station are not official NWS values.
T = Trace of Precipitation, MM = Missing Value Source: NWS Daily Summary

Daily Weather History Graph

Daily Weather History Graph

Search for Another Location

Airport or City:

Astronomy

Oct. 23, 2019 Rise Set
Actual Time 7:12 AM CDT 6:09 PM CDT
Civil Twilight 6:46 AM CDT 6:35 PM CDT
Nautical Twilight 6:15 AM CDT 7:06 PM CDT
Astronomical Twilight 5:45 AM CDT 7:36 PM CDT
Moon 1:39 AM CDT (10/23) 3:52 PM CDT (10/23)
Length of Visible Light 11h 49m
Length of Day
10h 56m
Waning Crescent, 26% of the Moon is Illuminated
Oct 23
Waning Crescent
Oct 27
New
Nov 4
First Quarter
Nov 12
Full
Nov 19
Last Quarter

Hourly Weather History & Observations

Time (CDT) Temp. Windchill Dew Point Humidity Pressure Visibility Wind Dir Wind Speed Gust Speed Precip Events Conditions
12:52 AM 39.0 °F 35.7 °F 33.1 °F 79% 30.05 in 10.0 mi South 4.6 mph - N/A   Clear
1:52 AM 41.0 °F 37.1 °F 34.0 °F 76% 30.06 in 10.0 mi SSW 5.8 mph - N/A   Clear
2:52 AM 39.0 °F 35.7 °F 34.0 °F 82% 30.05 in 10.0 mi SSE 4.6 mph - N/A   Clear
3:52 AM 39.9 °F - 35.1 °F 83% 30.05 in 10.0 mi Calm Calm - N/A   Clear
4:52 AM 39.0 °F - 35.1 °F 86% 30.06 in 10.0 mi Calm Calm - N/A   Clear
5:52 AM 37.0 °F 34.5 °F 34.0 °F 89% 30.08 in 10.0 mi SSE 3.5 mph - N/A   Clear
6:52 AM 39.0 °F 35.7 °F 35.1 °F 86% 30.09 in 10.0 mi SSE 4.6 mph - N/A   Clear
7:52 AM 41.0 °F 39.0 °F 36.0 °F 82% 30.10 in 10.0 mi SSE 3.5 mph - N/A   Clear
8:52 AM 50.0 °F - 39.9 °F 68% 30.13 in 10.0 mi SSW 8.1 mph - N/A   Clear
9:52 AM 57.9 °F - 37.0 °F 46% 30.13 in 10.0 mi SSW 12.7 mph - N/A   Clear
10:52 AM 63.0 °F - 37.0 °F 38% 30.13 in 10.0 mi SSW 11.5 mph - N/A   Clear
11:52 AM 66.0 °F - 36.0 °F 33% 30.12 in 10.0 mi SSW 19.6 mph 28.8 mph N/A   Clear
12:52 PM 68.0 °F - 36.0 °F 31% 30.09 in 10.0 mi SSW 17.3 mph 33.4 mph N/A   Clear
1:52 PM 70.0 °F - 37.0 °F 30% 30.05 in 10.0 mi South 24.2 mph 31.1 mph N/A   Clear
2:52 PM 69.1 °F - 37.9 °F 32% 30.04 in 10.0 mi South 19.6 mph 28.8 mph N/A   Clear
3:52 PM 70.0 °F - 39.9 °F 33% 30.04 in 10.0 mi South 26.5 mph 32.2 mph N/A   Clear
4:52 PM 68.0 °F - 41.0 °F 37% 30.03 in 10.0 mi South 16.1 mph 26.5 mph N/A   Clear
5:52 PM 63.0 °F - 41.0 °F 45% 30.04 in 10.0 mi South 16.1 mph - N/A   Clear
6:52 PM 61.0 °F - 41.0 °F 48% 30.05 in 10.0 mi South 12.7 mph 21.9 mph N/A   Clear
7:52 PM 61.0 °F - 39.9 °F 46% 30.06 in 10.0 mi South 15.0 mph 20.7 mph N/A   Clear
8:52 PM 60.1 °F - 39.0 °F 46% 30.07 in 10.0 mi SSW 11.5 mph - N/A   Clear
9:52 PM 59.0 °F - 39.9 °F 49% 30.11 in 10.0 mi SW 12.7 mph - N/A   Clear
10:52 PM 57.9 °F - 41.0 °F 53% 30.12 in 10.0 mi SSW 9.2 mph - N/A   Clear
11:52 PM 57.9 °F - 41.0 °F 53% 30.12 in 10.0 mi SSW 9.2 mph - N/A   Clear